Time,TemperatureF,DewpointF,PressureIn,WindDirection,WindDirectionDegrees,WindSpeedMPH,WindSpeedGustMPH,Humidity,HourlyPrecipIn,Conditions,Clouds,dailyrainin,SoftwareType,DateUTC
2013-06-16 00:01:00,74.2,65.8,29.94,SW,222,0.0,0.0,75,0.00,CLR,,0.00,WeatherDisplay:10.37,2013-06-16 05:01:00,
2013-06-16 00:06:00,74.2,65.4,29.95,SW,222,0.0,0.0,74,0.00,CLR,,0.00,WeatherDisplay:10.37,2013-06-16 05:06:00,
2013-06-16 00:11:00,74.3,65.9,29.95,SW,222,0.0,0.0,75,0.00,CLR,,0.00,WeatherDisplay:10.37,2013-06-16 05:11:00,
2013-06-16 00:16:00,74.2,65.8,29.95,SW,222,0.0,0.0,75,0.00,CLR,,0.00,WeatherDisplay:10.37,2013-06-16 05:16:00,
2013-06-16 00:21:00,74.3,65.9,29.95,SW,222,0.0,0.0,75,0.00,CLR,,0.00,WeatherDisplay:10.37,2013-06-16 05:21:00,
2013-06-16 00:26:00,74.2,65.8,29.95,SW,222,0.0,0.0,75,0.00,CLR,,0.00,WeatherDisplay:10.37,2013-06-16 05:26:00,
2013-06-16 00:31:00,74.2,65.8,29.95,SW,222,0.0,0.0,75,0.00,CLR,,0.00,WeatherDisplay:10.37,2013-06-16 05:31:00,
2013-06-16 00:36:00,74.2,65.8,29.95,SW,222,0.0,0.0,75,0.00,CLR,,0.00,WeatherDisplay:10.37,2013-06-16 05:36:00,
2013-06-16 00:41:00,74.1,66.0,29.95,SW,222,0.0,0.0,76,0.00,CLR,,0.00,WeatherDisplay:10.37,2013-06-16 05:41:00,
2013-06-16 00:46:00,74.0,66.7,29.95,SW,222,0.0,0.0,78,0.00,CLR,,0.00,WeatherDisplay:10.37,2013-06-16 05:46:00,
2013-06-16 00:51:00,73.8,66.5,29.95,SW,222,0.0,0.0,78,0.00,CLR,,0.00,WeatherDisplay:10.37,2013-06-16 05:51:00,
2013-06-16 00:56:00,73.5,66.6,29.95,SW,222,0.0,0.0,79,0.00,CLR,,0.00,WeatherDisplay:10.37,2013-06-16 05:56:00,
2013-06-16 01:01:00,73.3,66.4,29.95,SW,222,0.0,0.0,79,0.00,CLR,,0.00,WeatherDisplay:10.37,2013-06-16 06:01:00,
2013-06-16 01:06:00,73.1,66.6,29.96,SW,222,0.0,0.0,80,0.00,CLR,,0.00,WeatherDisplay:10.37,2013-06-16 06:06:00,
2013-06-16 01:11:00,73.1,66.9,29.95,SW,222,0.0,0.0,81,0.00,CLR,,0.00,WeatherDisplay:10.37,2013-06-16 06:11:00,
2013-06-16 01:16:00,73.0,67.2,29.95,SW,222,0.0,0.0,82,0.00,CLR,,0.00,WeatherDisplay:10.37,2013-06-16 06:16:00,
2013-06-16 01:21:00,72.9,67.1,29.95,SW,222,0.0,0.0,82,0.00,CLR,,0.00,WeatherDisplay:10.37,2013-06-16 06:21:00,
2013-06-16 01:26:00,72.8,67.0,29.95,SW,222,0.0,0.0,82,0.00,CLR,,0.00,WeatherDisplay:10.37,2013-06-16 06:26:00,
2013-06-16 01:31:00,72.7,67.2,29.95,SW,222,0.0,0.0,83,0.00,CLR,,0.00,WeatherDisplay:10.37,2013-06-16 06:31:00,
2013-06-16 01:36:00,72.6,67.1,29.95,SW,222,0.0,0.0,83,0.00,CLR,,0.00,WeatherDisplay:10.37,2013-06-16 06:36:00,
2013-06-16 01:41:00,72.4,66.9,29.95,SW,222,0.0,0.0,83,0.00,CLR,,0.00,WeatherDisplay:10.37,2013-06-16 06:41:00,
2013-06-16 01:46:00,72.2,67.1,29.95,SW,222,0.0,0.0,84,0.00,CLR,,0.00,WeatherDisplay:10.37,2013-06-16 06:46:00,
2013-06-16 01:51:00,72.1,67.0,29.95,SW,222,0.0,0.0,84,0.00,CLR,,0.00,WeatherDisplay:10.37,2013-06-16 06:51:00,
2013-06-16 01:57:00,71.9,66.8,29.95,SW,222,0.0,0.0,84,0.00,CLR,,0.00,WeatherDisplay:10.37,2013-06-16 06:57:00,
2013-06-16 02:02:00,71.8,67.0,29.94,SW,222,0.0,0.0,85,0.00,CLR,,0.00,WeatherDisplay:10.37,2013-06-16 07:02:00,
2013-06-16 02:07:00,71.8,67.0,29.95,SW,222,0.0,0.0,85,0.00,CLR,,0.00,WeatherDisplay:10.37,2013-06-16 07:07:00,
2013-06-16 02:12:00,71.6,66.8,29.94,SW,222,0.0,0.0,85,0.00,CLR,,0.00,WeatherDisplay:10.37,2013-06-16 07:12:00,
2013-06-16 02:17:00,71.5,66.8,29.94,SW,222,0.0,0.0,85,0.00,CLR,,0.00,WeatherDisplay:10.37,2013-06-16 07:17:00,
2013-06-16 02:22:00,71.5,67.1,29.94,SW,222,0.0,0.0,86,0.00,CLR,,0.00,WeatherDisplay:10.37,2013-06-16 07:22:00,
2013-06-16 02:27:00,71.5,67.4,29.94,SW,222,0.0,0.0,87,0.00,CLR,,0.00,WeatherDisplay:10.37,2013-06-16 07:27:00,
2013-06-16 02:32:00,71.3,67.2,29.93,SW,222,0.0,0.0,87,0.00,CLR,,0.00,WeatherDisplay:10.37,2013-06-16 07:32:00,
2013-06-16 02:37:00,71.1,66.7,29.93,SSW,198,0.0,0.0,86,0.00,CLR,,0.00,WeatherDisplay:10.37,2013-06-16 07:37:00,
2013-06-16 02:42:00,71.2,66.8,29.92,South,169,0.0,0.0,86,0.00,CLR,,0.00,WeatherDisplay:10.37,2013-06-16 07:42:00,
2013-06-16 02:47:00,71.4,66.7,29.92,ESE,113,0.0,0.0,85,0.00,CLR,,0.00,WeatherDisplay:10.37,2013-06-16 07:47:00,
2013-06-16 02:52:00,71.4,66.7,29.92,ESE,113,0.0,0.0,85,0.00,CLR,,0.00,WeatherDisplay:10.37,2013-06-16 07:52:00,
2013-06-16 02:57:00,71.3,66.6,29.92,ESE,113,0.0,0.0,85,0.00,CLR,,0.00,WeatherDisplay:10.37,2013-06-16 07:57:00,
2013-06-16 03:02:00,71.2,66.5,29.92,ESE,113,0.0,0.0,85,0.00,CLR,,0.00,WeatherDisplay:10.37,2013-06-16 08:02:00,
2013-06-16 03:07:00,71.2,66.5,29.92,ESE,113,0.0,0.0,85,0.00,CLR,,0.00,WeatherDisplay:10.37,2013-06-16 08:07:00,
2013-06-16 03:12:00,71.1,66.7,29.92,ESE,113,0.0,0.0,86,0.00,CLR,,0.00,WeatherDisplay:10.37,2013-06-16 08:12:00,
2013-06-16 03:17:00,71.0,66.9,29.92,ESE,113,0.0,0.0,87,0.00,CLR,,0.00,WeatherDisplay:10.37,2013-06-16 08:17:00,
2013-06-16 03:22:00,70.8,66.7,29.93,ESE,113,0.0,0.0,87,0.00,CLR,,0.00,WeatherDisplay:10.37,2013-06-16 08:22:00,
2013-06-16 03:27:00,70.7,66.6,29.93,ESE,113,0.0,0.0,87,0.00,CLR,,0.00,WeatherDisplay:10.37,2013-06-16 08:27:00,
2013-06-16 03:32:00,70.5,66.8,29.93,SSW,209,0.0,0.0,88,0.00,CLR,,0.00,WeatherDisplay:10.37,2013-06-16 08:32:00,
2013-06-16 03:37:00,70.5,66.8,29.93,NW,304,0.0,0.0,88,0.00,CLR,,0.00,WeatherDisplay:10.37,2013-06-16 08:37:00,
2013-06-16 03:42:00,70.6,66.9,29.93,West,269,0.0,0.0,88,0.00,CLR,,0.00,WeatherDisplay:10.37,2013-06-16 08:42:00,
2013-06-16 03:47:00,70.7,67.0,29.93,West,269,0.0,0.0,88,0.00,CLR,,0.00,WeatherDisplay:10.37,2013-06-16 08:47:00,
2013-06-16 03:52:00,70.9,66.8,29.92,West,269,0.0,0.0,87,0.00,CLR,,0.00,WeatherDisplay:10.37,2013-06-16 08:52:00,
2013-06-16 03:57:00,71.0,66.9,29.92,West,269,0.0,0.0,87,0.00,CLR,,0.00,WeatherDisplay:10.37,2013-06-16 08:57:00,
2013-06-16 04:02:00,70.9,66.8,29.92,West,269,0.0,0.0,87,0.00,CLR,,0.00,WeatherDisplay:10.37,2013-06-16 09:02:00,
2013-06-16 04:07:00,70.8,66.7,29.92,West,269,0.0,0.0,87,0.00,CLR,,0.00,WeatherDisplay:10.37,2013-06-16 09:07:00,
2013-06-16 04:12:00,70.8,66.7,29.92,West,269,0.0,0.0,87,0.00,CLR,,0.00,WeatherDisplay:10.37,2013-06-16 09:12:00,
2013-06-16 04:17:00,70.8,66.7,29.92,West,269,0.0,0.0,87,0.00,CLR,,0.00,WeatherDisplay:10.37,2013-06-16 09:17:00,
2013-06-16 04:22:00,70.8,67.1,29.91,West,269,0.0,0.0,88,0.00,CLR,,0.00,WeatherDisplay:10.37,2013-06-16 09:22:00,
2013-06-16 04:27:00,70.7,67.0,29.91,West,269,0.0,0.0,88,0.00,CLR,,0.00,WeatherDisplay:10.37,2013-06-16 09:27:00,
2013-06-16 04:32:00,70.4,66.7,29.91,West,269,0.0,0.0,88,0.00,CLR,,0.00,WeatherDisplay:10.37,2013-06-16 09:32:00,
2013-06-16 04:37:00,70.2,66.5,29.91,West,269,0.0,0.0,88,0.00,CLR,,0.00,WeatherDisplay:10.37,2013-06-16 09:37:00,
2013-06-16 04:42:00,70.1,66.4,29.92,West,269,0.0,0.0,88,0.00,CLR,,0.00,WeatherDisplay:10.37,2013-06-16 09:42:00,
2013-06-16 04:47:00,70.0,66.6,29.92,West,269,0.0,0.0,89,0.00,CLR,,0.00,WeatherDisplay:10.37,2013-06-16 09:47:00,
2013-06-16 04:52:00,70.1,66.7,29.91,West,269,0.0,0.0,89,0.00,CLR,,0.00,WeatherDisplay:10.37,2013-06-16 09:52:00,
2013-06-16 04:57:00,70.0,66.6,29.92,West,269,0.0,0.0,89,0.00,CLR,,0.00,WeatherDisplay:10.37,2013-06-16 09:57:00,
2013-06-16 05:02:00,69.8,66.4,29.92,West,269,0.0,0.0,89,0.00,CLR,,0.00,WeatherDisplay:10.37,2013-06-16 10:02:00,
2013-06-16 05:07:00,69.6,66.2,29.92,West,269,0.0,0.0,89,0.00,CLR,,0.00,WeatherDisplay:10.37,2013-06-16 10:07:00,
2013-06-16 05:12:00,69.5,66.1,29.93,West,269,0.0,0.0,89,0.00,CLR,,0.00,WeatherDisplay:10.37,2013-06-16 10:12:00,
2013-06-16 05:17:00,69.4,66.0,29.93,West,269,0.0,0.0,89,0.00,CLR,,0.00,WeatherDisplay:10.37,2013-06-16 10:17:00,
2013-06-16 05:22:00,69.4,66.3,29.93,West,269,0.0,0.0,90,0.00,CLR,,0.00,WeatherDisplay:10.37,2013-06-16 10:22:00,
2013-06-16 05:27:00,69.4,66.3,29.93,West,269,0.0,0.0,90,0.00,CLR,,0.00,WeatherDisplay:10.37,2013-06-16 10:27:00,
2013-06-16 05:32:00,69.3,66.2,29.93,West,269,0.0,0.0,90,0.00,CLR,,0.00,WeatherDisplay:10.37,2013-06-16 10:32:00,
2013-06-16 05:37:00,69.3,66.2,29.93,West,269,0.0,0.0,90,0.00,CLR,,0.00,WeatherDisplay:10.37,2013-06-16 10:37:00,
2013-06-16 05:42:00,69.3,66.2,29.93,West,269,0.0,0.0,90,0.00,CLR,,0.00,WeatherDisplay:10.37,2013-06-16 10:42:00,
2013-06-16 05:47:00,69.2,66.1,29.94,West,269,0.0,0.0,90,0.00,CLR,,0.00,WeatherDisplay:10.37,2013-06-16 10:47:00,
2013-06-16 05:52:00,69.1,66.4,29.94,West,269,0.0,0.0,91,0.00,CLR,,0.00,WeatherDisplay:10.37,2013-06-16 10:52:00,
2013-06-16 05:57:00,69.2,66.5,29.93,West,269,0.0,0.0,91,0.00,CLR,,0.00,WeatherDisplay:10.37,2013-06-16 10:57:00,
2013-06-16 06:02:00,69.2,66.5,29.93,West,269,0.0,0.0,91,0.00,CLR,,0.00,WeatherDisplay:10.37,2013-06-16 11:02:00,
2013-06-16 06:07:00,69.2,66.5,29.93,West,269,0.0,0.0,91,0.00,CLR,,0.00,WeatherDisplay:10.37,2013-06-16 11:07:00,
2013-06-16 06:12:00,69.2,66.8,29.93,West,269,0.0,0.0,92,0.00,CLR,,0.00,WeatherDisplay:10.37,2013-06-16 11:12:00,
2013-06-16 06:17:00,69.3,66.9,29.93,West,269,0.0,0.0,92,0.00,CLR,,0.00,WeatherDisplay:10.37,2013-06-16 11:17:00,
2013-06-16 06:22:00,69.4,67.0,29.93,West,269,0.0,0.0,92,0.00,CLR,,0.00,WeatherDisplay:10.37,2013-06-16 11:22:00,
2013-06-16 06:27:00,69.4,67.0,29.94,West,269,0.0,0.0,92,0.00,CLR,,0.00,WeatherDisplay:10.37,2013-06-16 11:27:00,
2013-06-16 06:32:00,69.4,67.0,29.94,West,269,0.0,0.0,92,0.00,CLR,,0.00,WeatherDisplay:10.37,2013-06-16 11:32:00,
2013-06-16 06:37:00,69.4,67.0,29.95,West,269,0.0,0.0,92,0.00,CLR,,0.00,WeatherDisplay:10.37,2013-06-16 11:37:00,
2013-06-16 06:42:00,69.5,67.1,29.95,West,269,0.0,0.0,92,0.00,CLR,,0.00,WeatherDisplay:10.37,2013-06-16 11:42:00,
2013-06-16 06:47:00,69.5,67.1,29.95,West,269,0.0,0.0,92,0.00,CLR,,0.00,WeatherDisplay:10.37,2013-06-16 11:47:00,
2013-06-16 06:52:00,69.6,67.2,29.95,West,269,0.0,0.0,92,0.00,CLR,,0.00,WeatherDisplay:10.37,2013-06-16 11:52:00,
2013-06-16 06:57:00,69.7,67.3,29.95,West,269,0.0,0.0,92,0.00,CLR,,0.00,WeatherDisplay:10.37,2013-06-16 11:57:00,
2013-06-16 07:02:00,69.7,67.3,29.95,West,269,0.0,0.0,92,0.00,CLR,,0.00,WeatherDisplay:10.37,2013-06-16 12:02:00,
2013-06-16 07:07:00,69.8,67.4,29.95,West,269,0.0,0.0,92,0.00,CLR,,0.00,WeatherDisplay:10.37,2013-06-16 12:07:00,
2013-06-16 07:12:00,70.0,67.9,29.95,West,269,0.0,0.0,93,0.00,CLR,,0.00,WeatherDisplay:10.37,2013-06-16 12:12:00,
2013-06-16 07:17:00,70.2,68.1,29.96,West,269,0.0,0.0,93,0.00,CLR,,0.00,WeatherDisplay:10.37,2013-06-16 12:17:00,
2013-06-16 07:22:00,70.3,68.2,29.96,West,269,0.0,0.0,93,0.00,CLR,,0.00,WeatherDisplay:10.37,2013-06-16 12:22:00,
2013-06-16 07:27:00,70.4,68.3,29.96,West,269,0.0,0.0,93,0.00,CLR,,0.00,WeatherDisplay:10.37,2013-06-16 12:27:00,
2013-06-16 07:32:00,70.5,68.4,29.96,West,269,0.0,0.0,93,0.00,CLR,,0.00,WeatherDisplay:10.37,2013-06-16 12:32:00,
2013-06-16 07:37:00,70.7,68.6,29.96,West,269,0.0,0.0,93,0.00,CLR,,0.00,WeatherDisplay:10.37,2013-06-16 12:37:00,
2013-06-16 07:42:00,70.8,68.7,29.96,West,269,0.0,0.0,93,0.00,CLR,,0.00,WeatherDisplay:10.37,2013-06-16 12:42:00,
2013-06-16 07:47:00,70.8,68.4,29.96,ESE,115,0.0,0.0,92,0.00,CLR,,0.00,WeatherDisplay:10.37,2013-06-16 12:47:00,
2013-06-16 07:52:00,71.2,68.4,29.95,ESE,109,0.0,0.0,91,0.00,CLR,,0.00,WeatherDisplay:10.37,2013-06-16 12:52:00,
2013-06-16 07:57:00,71.5,68.7,29.95,ENE,76,0.0,0.0,91,0.00,CLR,,0.00,WeatherDisplay:10.37,2013-06-16 12:57:00,
2013-06-16 08:02:00,71.9,68.8,29.94,East,81,0.0,0.0,90,0.00,CLR,,0.00,WeatherDisplay:10.37,2013-06-16 13:02:00,
2013-06-16 08:07:00,72.3,68.9,29.95,NE,36,0.0,0.0,89,0.00,CLR,,0.00,WeatherDisplay:10.37,2013-06-16 13:07:00,
2013-06-16 08:12:00,72.6,69.2,29.96,NNE,15,0.0,0.0,89,0.00,CLR,,0.00,WeatherDisplay:10.37,2013-06-16 13:12:00,
2013-06-16 08:17:00,72.7,69.3,29.96,NNE,15,0.0,0.0,89,0.00,CLR,,0.00,WeatherDisplay:10.37,2013-06-16 13:17:00,
2013-06-16 08:22:00,73.0,69.2,29.96,North,5,0.0,0.0,88,0.00,CLR,,0.00,WeatherDisplay:10.37,2013-06-16 13:22:00,
2013-06-16 08:27:00,73.1,69.3,29.96,North,5,0.0,0.0,88,0.00,CLR,,0.00,WeatherDisplay:10.37,2013-06-16 13:27:00,
2013-06-16 08:32:00,73.4,69.6,29.95,North,5,0.0,0.0,88,0.00,CLR,,0.00,WeatherDisplay:10.37,2013-06-16 13:32:00,
2013-06-16 08:37:00,73.5,69.7,29.96,North,5,0.0,0.0,88,0.00,CLR,,0.00,WeatherDisplay:10.37,2013-06-16 13:37:00,
2013-06-16 08:42:00,73.9,70.1,29.96,North,5,0.0,0.0,88,0.00,CLR,,0.00,WeatherDisplay:10.37,2013-06-16 13:42:00,
2013-06-16 08:47:00,74.1,69.6,29.95,North,5,0.0,0.0,86,0.00,CLR,,0.00,WeatherDisplay:10.37,2013-06-16 13:47:00,
2013-06-16 08:52:00,74.5,70.0,29.95,North,5,0.0,0.0,86,0.00,CLR,,0.00,WeatherDisplay:10.37,2013-06-16 13:52:00,
2013-06-16 08:57:00,75.1,70.3,29.95,NW,325,0.0,0.0,85,0.00,CLR,,0.00,WeatherDisplay:10.37,2013-06-16 13:57:00,
2013-06-16 09:02:00,75.7,70.5,29.95,WNW,298,0.0,0.0,84,0.00,CLR,,0.00,WeatherDisplay:10.37,2013-06-16 14:02:00,
2013-06-16 09:07:00,76.3,70.8,29.95,SW,228,0.0,0.0,83,0.00,CLR,,0.00,WeatherDisplay:10.37,2013-06-16 14:07:00,
2013-06-16 09:12:00,76.7,70.8,29.95,SW,228,0.0,0.0,82,0.00,CLR,,0.00,WeatherDisplay:10.37,2013-06-16 14:12:00,
2013-06-16 09:17:00,77.2,70.9,29.95,SW,227,0.0,0.0,81,0.00,CLR,,0.00,WeatherDisplay:10.37,2013-06-16 14:17:00,
2013-06-16 09:22:00,77.8,70.8,29.95,SW,234,0.0,0.0,79,0.00,CLR,,0.00,WeatherDisplay:10.37,2013-06-16 14:22:00,
2013-06-16 09:27:00,78.3,71.2,29.95,SW,235,1.1,1.1,79,0.00,CLR,,0.00,WeatherDisplay:10.37,2013-06-16 14:27:00,
2013-06-16 09:32:00,78.7,71.6,29.95,SW,226,2.3,2.3,79,0.00,CLR,,0.00,WeatherDisplay:10.37,2013-06-16 14:32:00,
2013-06-16 09:37:00,79.0,71.9,29.95,WNW,286,0.0,0.0,79,0.00,CLR,,0.00,WeatherDisplay:10.37,2013-06-16 14:37:00,
2013-06-16 09:42:00,79.4,71.9,29.95,SW,232,3.5,3.5,78,0.00,CLR,,0.00,WeatherDisplay:10.37,2013-06-16 14:42:00,
2013-06-16 09:47:00,79.6,71.4,29.95,SW,214,4.6,4.6,76,0.00,CLR,,0.00,WeatherDisplay:10.37,2013-06-16 14:47:00,
2013-06-16 09:52:00,79.6,71.0,29.94,SW,220,8.1,8.1,75,0.00,CLR,,0.00,WeatherDisplay:10.37,2013-06-16 14:52:00,
2013-06-16 09:57:00,79.6,71.0,29.94,SW,225,4.6,4.6,75,0.00,CLR,,0.00,WeatherDisplay:10.37,2013-06-16 14:57:00,
2013-06-16 10:02:00,79.7,71.1,29.94,WSW,246,2.3,2.3,75,0.00,CLR,,0.00,WeatherDisplay:10.37,2013-06-16 15:02:00,
2013-06-16 10:07:00,79.8,71.2,29.94,West,262,2.3,2.3,75,0.00,CLR,,0.00,WeatherDisplay:10.37,2013-06-16 15:07:00,
2013-06-16 10:12:00,79.8,71.2,29.93,SW,229,2.3,2.3,75,0.00,CLR,,0.00,WeatherDisplay:10.37,2013-06-16 15:12:00,
2013-06-16 10:17:00,79.8,71.2,29.93,ESE,102,3.5,3.5,75,0.00,CLR,,0.00,WeatherDisplay:10.37,2013-06-16 15:17:00,
2013-06-16 10:22:00,79.7,70.7,29.93,WSW,250,8.0,8.0,74,0.00,CLR,,0.00,WeatherDisplay:10.37,2013-06-16 15:22:00,
2013-06-16 10:27:00,79.7,71.1,29.94,SSW,196,3.5,0.0,75,0.00,CLR,,0.00,WeatherDisplay:10.37,2013-06-16 15:27:00,
2013-06-16 10:32:00,79.8,71.2,29.94,SSW,212,6.9,6.9,75,0.00,CLR,,0.00,WeatherDisplay:10.37,2013-06-16 15:32:00,
2013-06-16 10:37:00,80.1,71.5,29.93,West,265,1.1,1.1,75,0.00,CLR,,0.00,WeatherDisplay:10.37,2013-06-16 15:37:00,
2013-06-16 10:42:00,80.3,70.9,29.93,SW,232,4.0,4.0,73,0.00,CLR,,0.00,WeatherDisplay:10.37,2013-06-16 15:42:00,
2013-06-16 10:47:00,80.4,71.3,29.93,SW,236,4.6,4.6,74,0.00,CLR,,0.00,WeatherDisplay:10.37,2013-06-16 15:47:00,
2013-06-16 10:52:00,80.8,71.7,29.93,WSW,241,2.3,2.3,74,0.00,CLR,,0.00,WeatherDisplay:10.37,2013-06-16 15:52:00,
2013-06-16 10:57:00,81.2,72.5,29.93,SW,229,4.0,4.0,75,0.00,CLR,,0.00,WeatherDisplay:10.37,2013-06-16 15:57:00,
2013-06-16 11:02:00,81.6,72.1,29.93,SSW,196,4.6,4.6,73,0.00,CLR,,0.00,WeatherDisplay:10.37,2013-06-16 16:02:00,
2013-06-16 11:07:00,81.6,71.7,29.93,WSW,252,4.6,4.6,72,0.00,CLR,,0.00,WeatherDisplay:10.37,2013-06-16 16:07:00,
2013-06-16 11:12:00,81.4,71.5,29.93,NW,314,3.5,3.5,72,0.00,CLR,,0.00,WeatherDisplay:10.37,2013-06-16 16:12:00,
2013-06-16 11:17:00,80.9,71.4,29.93,SW,219,2.3,2.3,73,0.00,CLR,,0.00,WeatherDisplay:10.37,2013-06-16 16:17:00,
2013-06-16 11:22:00,80.4,70.9,29.93,SW,221,5.8,5.8,73,0.00,CLR,,0.00,WeatherDisplay:10.37,2013-06-16 16:22:00,
2013-06-16 11:27:00,80.0,71.0,29.93,SW,235,3.5,3.5,74,0.00,CLR,,0.00,WeatherDisplay:10.37,2013-06-16 16:27:00,
2013-06-16 11:32:00,79.8,71.2,29.93,SW,224,3.5,3.5,75,0.00,CLR,,0.00,WeatherDisplay:10.37,2013-06-16 16:32:00,
2013-06-16 11:37:00,79.6,71.4,29.93,WSW,246,1.1,1.1,76,0.00,CLR,,0.00,WeatherDisplay:10.37,2013-06-16 16:37:00,
2013-06-16 11:42:00,79.6,71.4,29.93,SSW,207,3.5,3.5,76,0.00,CLR,,0.00,WeatherDisplay:10.37,2013-06-16 16:42:00,
2013-06-16 11:47:00,79.5,71.3,29.93,WSW,253,1.1,1.1,76,0.00,CLR,,0.00,WeatherDisplay:10.37,2013-06-16 16:47:00,
2013-06-16 11:52:00,79.5,71.7,29.93,SW,226,3.0,3.0,77,0.00,CLR,,0.00,WeatherDisplay:10.37,2013-06-16 16:52:00,
2013-06-16 11:57:00,79.5,72.0,29.93,SW,233,0.0,0.0,78,0.00,CLR,,0.00,WeatherDisplay:10.37,2013-06-16 16:57:00,
2013-06-16 12:02:00,79.5,71.7,29.93,SW,229,1.1,1.1,77,0.00,CLR,,0.00,WeatherDisplay:10.37,2013-06-16 17:02:00,
2013-06-16 12:07:00,79.4,71.9,29.93,SW,229,1.1,1.1,78,0.00,CLR,,0.00,WeatherDisplay:10.37,2013-06-16 17:07:00,
2013-06-16 12:12:00,79.5,72.4,29.93,SW,229,1.1,1.1,79,0.00,CLR,,0.00,WeatherDisplay:10.37,2013-06-16 17:12:00,
2013-06-16 12:17:00,79.4,71.9,29.94,WSW,256,3.5,3.5,78,0.00,CLR,,0.00,WeatherDisplay:10.37,2013-06-16 17:17:00,
2013-06-16 12:22:00,79.4,71.9,29.94,West,265,2.3,2.3,78,0.00,CLR,,0.00,WeatherDisplay:10.37,2013-06-16 17:22:00,
2013-06-16 12:27:00,79.6,71.8,29.93,SW,229,3.5,3.5,77,0.00,CLR,,0.00,WeatherDisplay:10.37,2013-06-16 17:27:00,
2013-06-16 12:32:00,80.0,72.1,29.93,SW,228,2.0,2.0,77,0.00,CLR,,0.00,WeatherDisplay:10.37,2013-06-16 17:32:00,
2013-06-16 12:37:00,80.5,72.2,29.93,WSW,255,4.6,4.6,76,0.00,CLR,,0.00,WeatherDisplay:10.37,2013-06-16 17:37:00,
2013-06-16 12:42:00,81.1,73.2,29.94,WSW,252,3.5,3.5,77,0.00,CLR,,0.00,WeatherDisplay:10.37,2013-06-16 17:42:00,
2013-06-16 12:47:00,81.6,72.9,29.94,WSW,252,4.0,4.1,75,0.00,CLR,,0.00,WeatherDisplay:10.37,2013-06-16 17:47:00,
2013-06-16 12:52:00,82.1,72.6,29.94,SW,215,5.8,5.8,73,0.00,CLR,,0.00,WeatherDisplay:10.37,2013-06-16 17:52:00,
2013-06-16 12:57:00,82.3,71.5,29.94,WSW,255,8.1,8.1,70,0.00,CLR,,0.00,WeatherDisplay:10.37,2013-06-16 17:57:00,
2013-06-16 13:02:00,82.2,71.4,29.93,WSW,247,5.8,5.8,70,0.00,CLR,,0.00,WeatherDisplay:10.37,2013-06-16 18:02:00,
2013-06-16 13:07:00,82.1,71.8,29.93,SW,230,5.8,5.8,71,0.00,CLR,,0.00,WeatherDisplay:10.37,2013-06-16 18:07:00,
2013-06-16 13:12:00,82.1,72.2,29.93,SW,221,3.5,3.5,72,0.00,CLR,,0.00,WeatherDisplay:10.37,2013-06-16 18:12:00,
2013-06-16 13:17:00,82.2,72.3,29.93,WSW,238,4.6,4.6,72,0.00,CLR,,0.00,WeatherDisplay:10.37,2013-06-16 18:17:00,
2013-06-16 13:22:00,82.4,72.9,29.93,West,265,4.6,4.6,73,0.00,CLR,,0.00,WeatherDisplay:10.37,2013-06-16 18:22:00,
2013-06-16 13:27:00,82.6,72.2,29.93,SW,229,4.0,4.0,71,0.00,CLR,,0.00,WeatherDisplay:10.37,2013-06-16 18:27:00,
2013-06-16 13:32:00,82.7,71.9,29.93,West,275,4.6,4.6,70,0.00,CLR,,0.00,WeatherDisplay:10.37,2013-06-16 18:32:00,
2013-06-16 13:37:00,82.9,72.1,29.93,SW,228,3.5,3.5,70,0.00,CLR,,0.00,WeatherDisplay:10.37,2013-06-16 18:37:00,
2013-06-16 13:42:00,83.1,72.3,29.93,WSW,252,5.8,5.8,70,0.00,CLR,,0.00,WeatherDisplay:10.37,2013-06-16 18:42:00,
2013-06-16 13:47:00,83.3,72.5,29.93,SW,226,3.5,3.5,70,0.00,CLR,,0.00,WeatherDisplay:10.37,2013-06-16 18:47:00,
2013-06-16 13:52:00,83.6,72.3,29.92,WSW,254,4.0,4.0,69,0.00,CLR,,0.00,WeatherDisplay:10.37,2013-06-16 18:52:00,
2013-06-16 13:57:00,83.7,72.4,29.92,WSW,252,3.5,3.5,69,0.00,CLR,,0.00,WeatherDisplay:10.37,2013-06-16 18:57:00,
2013-06-16 14:02:00,83.9,73.1,29.92,WSW,257,3.5,3.5,70,0.00,CLR,,0.00,WeatherDisplay:10.37,2013-06-16 19:02:00,
2013-06-16 14:07:00,84.0,72.3,29.92,WSW,250,3.5,3.5,68,0.00,CLR,,0.00,WeatherDisplay:10.37,2013-06-16 19:07:00,
2013-06-16 14:12:00,84.3,72.6,29.92,WSW,237,1.1,1.1,68,0.00,CLR,,0.00,WeatherDisplay:10.37,2013-06-16 19:12:00,
2013-06-16 14:17:00,84.5,72.3,29.92,WNW,288,1.0,1.0,67,0.00,CLR,,0.00,WeatherDisplay:10.37,2013-06-16 19:17:00,
2013-06-16 14:22:00,84.5,71.4,29.92,West,268,4.0,4.0,65,0.00,CLR,,0.00,WeatherDisplay:10.37,2013-06-16 19:22:00,
2013-06-16 14:27:00,84.5,72.8,29.92,WSW,246,3.5,3.5,68,0.00,CLR,,0.00,WeatherDisplay:10.37,2013-06-16 19:27:00,
2013-06-16 14:32:00,84.4,72.7,29.91,West,265,3.5,3.5,68,0.00,CLR,,0.00,WeatherDisplay:10.37,2013-06-16 19:32:00,
2013-06-16 14:37:00,84.4,72.2,29.91,WNW,294,4.6,4.6,67,0.00,CLR,,0.00,WeatherDisplay:10.37,2013-06-16 19:37:00,
2013-06-16 14:42:00,84.5,72.3,29.91,WNW,286,4.0,4.0,67,0.00,CLR,,0.00,WeatherDisplay:10.37,2013-06-16 19:42:00,
2013-06-16 14:47:00,84.7,72.1,29.91,WSW,246,4.6,4.6,66,0.00,CLR,,0.00,WeatherDisplay:10.37,2013-06-16 19:47:00,
2013-06-16 14:52:00,85.1,72.9,29.91,WNW,290,3.5,3.5,67,0.00,CLR,,0.00,WeatherDisplay:10.37,2013-06-16 19:52:00,
2013-06-16 14:57:00,85.4,73.6,29.91,WSW,248,4.0,4.0,68,0.00,CLR,,0.00,WeatherDisplay:10.37,2013-06-16 19:57:00,
2013-06-16 15:02:00,85.5,72.8,29.91,WSW,251,2.3,2.3,66,0.00,CLR,,0.00,WeatherDisplay:10.37,2013-06-16 20:02:00,
2013-06-16 15:07:00,85.7,72.6,29.91,WSW,257,3.5,3.5,65,0.00,CLR,,0.00,WeatherDisplay:10.37,2013-06-16 20:07:00,
2013-06-16 15:12:00,86.1,73.9,29.91,WSW,248,3.0,3.0,67,0.00,CLR,,0.00,WeatherDisplay:10.37,2013-06-16 20:12:00,
2013-06-16 15:17:00,86.3,73.1,29.90,WSW,249,3.5,3.5,65,0.00,CLR,,0.00,WeatherDisplay:10.37,2013-06-16 20:17:00,
2013-06-16 15:22:00,86.4,72.8,29.90,West,278,3.5,3.5,64,0.00,CLR,,0.00,WeatherDisplay:10.37,2013-06-16 20:22:00,
2013-06-16 15:27:00,86.5,73.3,29.90,West,272,0.0,0.0,65,0.00,CLR,,0.00,WeatherDisplay:10.37,2013-06-16 20:27:00,
2013-06-16 15:32:00,86.5,73.8,29.90,West,277,1.1,1.1,66,0.00,CLR,,0.00,WeatherDisplay:10.37,2013-06-16 20:32:00,
2013-06-16 15:37:00,86.2,72.1,29.90,West,279,3.5,3.5,63,0.00,CLR,,0.00,WeatherDisplay:10.37,2013-06-16 20:37:00,
2013-06-16 15:42:00,86.1,73.0,29.90,West,280,0.0,0.0,65,0.00,CLR,,0.00,WeatherDisplay:10.37,2013-06-16 20:42:00,
2013-06-16 15:47:00,86.2,73.5,29.90,West,280,0.0,0.0,66,0.00,CLR,,0.00,WeatherDisplay:10.37,2013-06-16 20:47:00,
2013-06-16 15:52:00,86.2,74.8,29.89,West,270,1.1,1.1,69,0.00,CLR,,0.00,WeatherDisplay:10.37,2013-06-16 20:52:00,
2013-06-16 15:57:00,86.2,74.4,29.89,West,270,1.1,0.0,68,0.00,CLR,,0.00,WeatherDisplay:10.37,2013-06-16 20:57:00,
2013-06-16 16:02:00,86.0,72.9,29.89,WNW,292,1.1,1.1,65,0.00,CLR,,0.00,WeatherDisplay:10.37,2013-06-16 21:02:00,
2013-06-16 16:07:00,85.8,72.7,29.89,WNW,292,1.1,1.1,65,0.00,CLR,,0.00,WeatherDisplay:10.37,2013-06-16 21:07:00,
2013-06-16 16:12:00,85.7,73.5,29.88,WNW,291,0.0,0.0,67,0.00,CLR,,0.00,WeatherDisplay:10.37,2013-06-16 21:12:00,
2013-06-16 16:17:00,85.4,73.2,29.88,WNW,291,0.0,0.0,67,0.00,CLR,,0.00,WeatherDisplay:10.37,2013-06-16 21:17:00,
2013-06-16 16:22:00,84.8,73.5,29.88,NW,306,0.0,0.0,69,0.00,CLR,,0.00,WeatherDisplay:10.37,2013-06-16 21:22:00,
2013-06-16 16:27:00,84.6,73.7,29.88,NW,314,0.0,0.0,70,0.00,CLR,,0.00,WeatherDisplay:10.37,2013-06-16 21:27:00,
2013-06-16 16:32:00,84.3,73.4,29.87,NW,314,0.0,0.0,70,0.00,CLR,,0.00,WeatherDisplay:10.37,2013-06-16 21:32:00,
2013-06-16 16:37:00,84.2,73.3,29.88,NW,314,0.0,0.0,70,0.00,CLR,,0.00,WeatherDisplay:10.37,2013-06-16 21:37:00,
2013-06-16 16:42:00,84.4,73.5,29.88,NW,326,1.1,0.0,70,0.00,CLR,,0.00,WeatherDisplay:10.37,2013-06-16 21:42:00,
2013-06-16 16:47:00,84.6,73.3,29.88,WSW,241,0.0,0.0,69,0.00,CLR,,0.00,WeatherDisplay:10.37,2013-06-16 21:47:00,
2013-06-16 16:52:00,85.1,74.2,29.88,WSW,240,0.0,0.0,70,0.00,CLR,,0.00,WeatherDisplay:10.37,2013-06-16 21:52:00,
2013-06-16 16:57:00,85.7,72.6,29.88,ESE,105,3.5,0.0,65,0.00,CLR,,0.00,WeatherDisplay:10.37,2013-06-16 21:57:00,
2013-06-16 17:02:00,86.1,72.5,29.87,East,91,1.1,0.0,64,0.00,CLR,,0.00,WeatherDisplay:10.37,2013-06-16 22:02:00,
2013-06-16 17:07:00,86.3,72.7,29.87,East,91,0.0,0.0,64,0.00,CLR,,0.00,WeatherDisplay:10.37,2013-06-16 22:07:00,
2013-06-16 17:12:00,86.4,72.3,29.88,East,94,2.0,0.0,63,0.00,CLR,,0.00,WeatherDisplay:10.37,2013-06-16 22:12:00,
2013-06-16 17:17:00,86.6,72.5,29.88,ESE,103,0.0,0.0,63,0.00,CLR,,0.00,WeatherDisplay:10.37,2013-06-16 22:17:00,
2013-06-16 17:22:00,87.2,72.6,29.88,SE,132,0.0,0.0,62,0.00,CLR,,0.00,WeatherDisplay:10.37,2013-06-16 22:22:00,
2013-06-16 17:27:00,87.6,72.5,29.88,WSW,242,0.0,0.0,61,0.00,CLR,,0.00,WeatherDisplay:10.37,2013-06-16 22:27:00,
2013-06-16 17:32:00,87.8,73.2,29.88,WSW,242,1.1,1.1,62,0.00,CLR,,0.00,WeatherDisplay:10.37,2013-06-16 22:32:00,
2013-06-16 17:37:00,87.5,72.4,29.87,SSE,150,0.0,0.0,61,0.00,CLR,,0.00,WeatherDisplay:10.37,2013-06-16 22:37:00,
2013-06-16 17:42:00,87.0,71.9,29.87,SSE,150,0.0,0.0,61,0.00,CLR,,0.00,WeatherDisplay:10.37,2013-06-16 22:42:00,
2013-06-16 17:47:00,86.7,71.6,29.87,ESE,115,2.3,0.0,61,0.00,CLR,,0.00,WeatherDisplay:10.37,2013-06-16 22:47:00,
2013-06-16 17:52:00,86.4,71.8,29.87,ESE,109,1.1,0.0,62,0.00,CLR,,0.00,WeatherDisplay:10.37,2013-06-16 22:52:00,
2013-06-16 17:57:00,86.2,72.1,29.87,ESE,109,0.0,0.0,63,0.00,CLR,,0.00,WeatherDisplay:10.37,2013-06-16 22:57:00,
2013-06-16 18:02:00,86.1,73.0,29.87,South,176,0.0,0.0,65,0.00,CLR,,0.00,WeatherDisplay:10.37,2013-06-16 23:02:00,
2013-06-16 18:07:00,86.0,72.9,29.87,South,176,0.0,0.0,65,0.00,CLR,,0.00,WeatherDisplay:10.37,2013-06-16 23:07:00,
2013-06-16 18:12:00,85.9,73.2,29.87,South,176,0.0,0.0,66,0.00,CLR,,0.00,WeatherDisplay:10.37,2013-06-16 23:12:00,
2013-06-16 18:17:00,86.0,74.2,29.87,South,176,0.0,0.0,68,0.00,CLR,,0.00,WeatherDisplay:10.37,2013-06-16 23:17:00,
2013-06-16 18:22:00,86.0,74.2,29.87,South,176,0.0,0.0,68,0.00,CLR,,0.00,WeatherDisplay:10.37,2013-06-16 23:22:00,
2013-06-16 18:27:00,86.0,74.6,29.87,South,176,0.0,0.0,69,0.00,CLR,,0.00,WeatherDisplay:10.37,2013-06-16 23:27:00,
2013-06-16 18:32:00,85.9,74.5,29.87,South,176,0.0,0.0,69,0.00,CLR,,0.00,WeatherDisplay:10.37,2013-06-16 23:32:00,
2013-06-16 18:37:00,85.7,74.8,29.87,South,176,0.0,0.0,70,0.00,CLR,,0.00,WeatherDisplay:10.37,2013-06-16 23:37:00,
2013-06-16 18:42:00,85.4,74.5,29.87,South,176,0.0,0.0,70,0.00,CLR,,0.00,WeatherDisplay:10.37,2013-06-16 23:42:00,
2013-06-16 18:47:00,85.0,74.5,29.87,South,176,0.0,0.0,71,0.00,CLR,,0.00,WeatherDisplay:10.37,2013-06-16 23:47:00,
2013-06-16 18:52:00,84.8,74.8,29.87,South,176,0.0,0.0,72,0.00,CLR,,0.00,WeatherDisplay:10.37,2013-06-16 23:52:00,
2013-06-16 18:57:00,84.7,74.7,29.87,South,176,0.0,0.0,72,0.00,CLR,,0.00,WeatherDisplay:10.37,2013-06-16 23:57:00,
2013-06-16 19:02:00,84.5,74.9,29.88,South,176,0.0,0.0,73,0.00,CLR,,0.00,WeatherDisplay:10.37,2013-06-17 00:02:00,
2013-06-16 19:07:00,84.1,74.5,29.87,South,176,0.0,0.0,73,0.00,CLR,,0.00,WeatherDisplay:10.37,2013-06-17 00:07:00,
2013-06-16 19:12:00,83.9,75.5,29.87,South,176,0.0,0.0,76,0.00,CLR,,0.00,WeatherDisplay:10.37,2013-06-17 00:12:00,
2013-06-16 19:17:00,83.6,74.8,29.87,South,176,0.0,0.0,75,0.00,CLR,,0.00,WeatherDisplay:10.37,2013-06-17 00:17:00,
2013-06-16 19:22:00,83.2,74.4,29.87,South,176,0.0,0.0,75,0.00,CLR,,0.00,WeatherDisplay:10.37,2013-06-17 00:22:00,
2013-06-16 19:27:00,82.8,74.5,29.87,South,176,0.0,0.0,76,0.00,CLR,,0.00,WeatherDisplay:10.37,2013-06-17 00:27:00,
2013-06-16 19:32:00,82.5,74.6,29.87,South,176,0.0,0.0,77,0.00,CLR,,0.00,WeatherDisplay:10.37,2013-06-17 00:32:00,
2013-06-16 19:37:00,82.4,74.5,29.88,South,176,0.0,0.0,77,0.00,CLR,,0.00,WeatherDisplay:10.37,2013-06-17 00:37:00,
2013-06-16 19:42:00,82.2,73.9,29.88,South,175,0.0,0.0,76,0.00,CLR,,0.00,WeatherDisplay:10.37,2013-06-17 00:42:00,
2013-06-16 19:47:00,81.8,73.9,29.88,South,176,0.0,0.0,77,0.00,CLR,,0.00,WeatherDisplay:10.37,2013-06-17 00:47:00,
2013-06-16 19:52:00,81.3,73.4,29.88,South,176,0.0,0.0,77,0.00,CLR,,0.00,WeatherDisplay:10.37,2013-06-17 00:52:00,
2013-06-16 19:57:00,80.9,73.4,29.88,South,176,0.0,0.0,78,0.00,CLR,,0.00,WeatherDisplay:10.37,2013-06-17 00:57:00,
2013-06-16 20:02:00,80.7,73.6,29.88,South,176,0.0,0.0,79,0.00,CLR,,0.00,WeatherDisplay:10.37,2013-06-17 01:02:00,
2013-06-16 20:07:00,80.4,73.3,29.87,South,176,0.0,0.0,79,0.00,CLR,,0.00,WeatherDisplay:10.37,2013-06-17 01:07:00,
2013-06-16 20:12:00,80.1,73.0,29.88,South,176,0.0,0.0,79,0.00,CLR,,0.00,WeatherDisplay:10.37,2013-06-17 01:12:00,
2013-06-16 20:17:00,79.8,73.1,29.88,South,176,0.0,0.0,80,0.00,CLR,,0.00,WeatherDisplay:10.37,2013-06-17 01:17:00,
2013-06-16 20:22:00,79.4,72.7,29.88,South,176,0.0,0.0,80,0.00,CLR,,0.00,WeatherDisplay:10.37,2013-06-17 01:22:00,
2013-06-16 20:27:00,79.1,72.8,29.88,South,176,0.0,0.0,81,0.00,CLR,,0.00,WeatherDisplay:10.37,2013-06-17 01:27:00,
2013-06-16 20:32:00,78.9,72.9,29.88,South,176,0.0,0.0,82,0.00,CLR,,0.00,WeatherDisplay:10.37,2013-06-17 01:32:00,
2013-06-16 20:37:00,78.6,72.6,29.88,South,176,0.0,0.0,82,0.00,CLR,,0.00,WeatherDisplay:10.37,2013-06-17 01:37:00,
2013-06-16 20:42:00,78.2,72.3,29.88,South,176,0.0,0.0,82,0.00,CLR,,0.00,WeatherDisplay:10.37,2013-06-17 01:42:00,
2013-06-16 20:47:00,77.9,72.3,29.88,South,176,0.0,0.0,83,0.00,CLR,,0.00,WeatherDisplay:10.37,2013-06-17 01:47:00,
2013-06-16 20:52:00,77.6,72.4,29.88,South,176,0.0,0.0,84,0.00,CLR,,0.00,WeatherDisplay:10.37,2013-06-17 01:52:00,
2013-06-16 20:57:00,77.3,72.1,29.88,South,176,0.0,0.0,84,0.00,CLR,,0.00,WeatherDisplay:10.37,2013-06-17 01:57:00,
2013-06-16 21:02:00,76.8,71.9,29.88,South,176,0.0,0.0,85,0.00,CLR,,0.00,WeatherDisplay:10.37,2013-06-17 02:02:00,
2013-06-16 21:07:00,76.5,72.0,29.88,South,176,0.0,0.0,86,0.00,CLR,,0.00,WeatherDisplay:10.37,2013-06-17 02:07:00,
2013-06-16 21:12:00,76.3,72.1,29.88,South,176,0.0,0.0,87,0.00,CLR,,0.00,WeatherDisplay:10.37,2013-06-17 02:12:00,
2013-06-16 21:17:00,76.1,71.9,29.88,South,176,0.0,0.0,87,0.00,CLR,,0.00,WeatherDisplay:10.37,2013-06-17 02:17:00,
2013-06-16 21:22:00,75.9,72.1,29.88,South,176,0.0,0.0,88,0.00,CLR,,0.00,WeatherDisplay:10.37,2013-06-17 02:22:00,
2013-06-16 21:27:00,75.8,72.0,29.88,South,175,0.0,0.0,88,0.00,CLR,,0.00,WeatherDisplay:10.37,2013-06-17 02:27:00,
2013-06-16 21:32:00,75.7,71.9,29.88,South,175,0.0,0.0,88,0.00,CLR,,0.00,WeatherDisplay:10.37,2013-06-17 02:32:00,
2013-06-16 21:37:00,75.6,71.8,29.88,South,176,0.0,0.0,88,0.00,CLR,,0.00,WeatherDisplay:10.37,2013-06-17 02:37:00,
2013-06-16 21:42:00,75.5,72.0,29.88,South,175,0.0,0.0,89,0.00,CLR,,0.00,WeatherDisplay:10.37,2013-06-17 02:42:00,
2013-06-16 21:47:00,75.4,71.6,29.89,South,175,0.0,0.0,88,0.00,CLR,,0.00,WeatherDisplay:10.37,2013-06-17 02:47:00,
2013-06-16 21:52:00,75.3,71.5,29.89,South,175,0.0,0.0,88,0.00,CLR,,0.00,WeatherDisplay:10.37,2013-06-17 02:52:00,
2013-06-16 21:57:00,75.3,71.5,29.89,South,175,0.0,0.0,88,0.00,CLR,,0.00,WeatherDisplay:10.37,2013-06-17 02:57:00,
2013-06-16 22:02:00,75.3,71.5,29.89,South,175,0.0,0.0,88,0.00,CLR,,0.00,WeatherDisplay:10.37,2013-06-17 03:02:00,
2013-06-16 22:07:00,75.3,71.5,29.89,South,175,0.0,0.0,88,0.00,CLR,,0.00,WeatherDisplay:10.37,2013-06-17 03:07:00,
2013-06-16 22:12:00,75.1,71.3,29.89,South,175,0.0,0.0,88,0.00,CLR,,0.00,WeatherDisplay:10.37,2013-06-17 03:12:00,
2013-06-16 22:17:00,75.0,71.2,29.89,South,175,0.0,0.0,88,0.00,CLR,,0.00,WeatherDisplay:10.37,2013-06-17 03:17:00,
2013-06-16 22:22:00,74.9,71.1,29.89,South,175,0.0,0.0,88,0.00,CLR,,0.00,WeatherDisplay:10.37,2013-06-17 03:22:00,
2013-06-16 22:27:00,74.7,70.9,29.89,South,175,0.0,0.0,88,0.00,CLR,,0.00,WeatherDisplay:10.37,2013-06-17 03:27:00,
2013-06-16 22:32:00,74.6,70.8,29.89,South,175,0.0,0.0,88,0.00,CLR,,0.00,WeatherDisplay:10.37,2013-06-17 03:32:00,
2013-06-16 22:37:00,74.4,70.6,29.89,South,175,0.0,0.0,88,0.00,CLR,,0.00,WeatherDisplay:10.37,2013-06-17 03:37:00,
2013-06-16 22:42:00,74.3,70.8,29.89,South,175,0.0,0.0,89,0.00,CLR,,0.00,WeatherDisplay:10.37,2013-06-17 03:42:00,
2013-06-16 22:47:00,74.2,70.7,29.89,South,175,0.0,0.0,89,0.00,CLR,,0.00,WeatherDisplay:10.37,2013-06-17 03:47:00,
2013-06-16 22:52:00,74.0,70.6,29.89,South,175,0.0,0.0,89,0.00,CLR,,0.00,WeatherDisplay:10.37,2013-06-17 03:52:00,
2013-06-16 22:58:00,73.9,70.8,29.89,South,175,0.0,0.0,90,0.00,CLR,,0.00,WeatherDisplay:10.37,2013-06-17 03:58:00,
2013-06-16 23:01:00,73.9,70.8,29.89,South,175,0.0,0.0,90,0.00,CLR,,0.00,WeatherDisplay:10.37,2013-06-17 04:01:00,
2013-06-16 23:06:00,73.7,70.6,29.89,South,175,0.0,0.0,90,0.00,CLR,,0.00,WeatherDisplay:10.37,2013-06-17 04:06:00,
2013-06-16 23:11:00,73.5,70.4,29.88,South,175,0.0,0.0,90,0.00,CLR,,0.00,WeatherDisplay:10.37,2013-06-17 04:11:00,
2013-06-16 23:16:00,73.4,70.3,29.88,South,175,0.0,0.0,90,0.00,CLR,,0.00,WeatherDisplay:10.37,2013-06-17 04:16:00,
2013-06-16 23:21:00,73.2,70.1,29.88,South,175,0.0,0.0,90,0.00,CLR,,0.00,WeatherDisplay:10.37,2013-06-17 04:21:00,
2013-06-16 23:26:00,73.1,70.3,29.88,South,175,0.0,0.0,91,0.00,CLR,,0.00,WeatherDisplay:10.37,2013-06-17 04:26:00,
2013-06-16 23:31:00,73.0,70.2,29.88,South,175,0.0,0.0,91,0.00,CLR,,0.00,WeatherDisplay:10.37,2013-06-17 04:31:00,
2013-06-16 23:36:00,73.0,70.2,29.88,South,175,0.0,0.0,91,0.00,CLR,,0.00,WeatherDisplay:10.37,2013-06-17 04:36:00,
2013-06-16 23:41:00,72.9,70.1,29.88,South,175,0.0,0.0,91,0.00,CLR,,0.00,WeatherDisplay:10.37,2013-06-17 04:41:00,
2013-06-16 23:46:00,72.9,70.1,29.88,South,175,0.0,0.0,91,0.00,CLR,,0.00,WeatherDisplay:10.37,2013-06-17 04:46:00,
2013-06-16 23:51:00,72.8,70.0,29.88,South,175,0.0,0.0,91,0.00,CLR,,0.00,WeatherDisplay:10.37,2013-06-17 04:51:00,
2013-06-16 23:56:00,72.8,70.0,29.88,South,175,0.0,0.0,91,0.00,CLR,,0.00,WeatherDisplay:10.37,2013-06-17 04:56:00,